Theta_e
292 292 294 294 294 293 293 294 291 293 291 297 299 299 298 298 301 303 305 306 308 311 312 314 315 315 313 311 310 309 306 305 304 304 302 300 300 297 298 297 299 296 297 296
290 292 293 292 293 294 293 293 292 293 292 298 298 297 297 299 301 301 302 302 303 305 307 310 310 309 307 306 305 306 304 301 299 298 297 295 295 296 297 295 298 297 296 297
287 289 290 287 291 293 294 295 296 291 297 297 296 296 297 298 299 298 298 298 299 300 301 302 303 303 302 301 302 300 299 298 296 295 294 295 296 296 298 297 297 296 295 295
286 285 282 294 295 295 295 295 295 294 295 296 296 295 295 297 297 295 295 295 295 296 297 298 299 298 298 298 297 297 296 295 296 296 295 297 297 296 295 295 295 295 296 297
286 286 289 291 293 294 293 294 296 296 295 295 295 296 293 293 294 293 293 292 293 294 294 295 296 296 296 296 296 296 295 296 296 296 296 295 294 295 295 296 296 295 294 293
284 284 283 293 295 296 296 289 296 296 295 295 296 294 296 292 292 292 292 292 292 293 294 294 295 296 295 295 296 295 296 296 297 297 295 293 293 294 294 293 291 291 290 291
283 287 289 294 295 297 289 293 297 297 297 297 296 296 295 292 291 291 291 291 292 293 293 294 295 296 295 296 295 296 295 293 292 291 291 291 291 291 290 290 289 289 288 290
285 286 286 296 293 292 299 297 298 298 298 298 293 291 291 291 290 290 290 291 292 292 292 294 295 294 292 291 292 292 291 289 289 289 289 289 289 289 289 289 288 287 287 287
292 293 299 297 300 299 298 299 298 299 298 295 291 291 290 289 289 289 290 291 291 290 289 290 291 291 289 289 289 289 289 288 287 287 286 286 285 285 284 284 284 283 283 283
295 297 296 297 299 300 299 299 299 300 297 295 292 291 289 288 288 289 289 289 289 288 287 287 288 288 287 287 288 287 286 285 284 283 283 283 283 283 282 282 282 281 281 281
293 295 297 298 299 299 298 298 296 297 296 294 292 289 289 288 288 289 288 288 288 287 286 285 285 283 284 285 286 284 283 282 281 281 281 281 281 281 281 282 281 280 280 280
293 299 300 300 301 297 296 296 295 293 292 293 292 289 289 288 288 288 287 287 287 286 283 282 281 281 282 283 282 282 280 280 279 280 280 280 279 279 280 279 279 280 279 279
298 299 294 293 294 295 294 293 293 293 291 289 290 289 289 287 287 286 286 286 285 282 281 281 281 279 280 281 280 279 278 278 278 278 278 278 277 277 276 278 278 278 278 277
295 296 293 293 292 292 291 291 291 290 290 289 288 288 287 285 285 285 285 284 282 280 280 281 279 277 278 279 278 278 277 275 277 277 277 276 276 275 275 274 274 275 276 275
294 294 295 291 290 289 289 289 287 286 286 286 287 286 286 284 284 283 283 282 281 280 280 279 277 276 277 278 277 276 276 276 275 275 275 274 274 273 274 273 272 272 273 273
291 291 290 289 288 287 288 287 286 285 285 285 285 285 285 283 283 282 280 280 279 278 277 274 274 276 276 276 276 275 275 273 273 273 273 272 272 271 271 271 270 270 270 269
288 286 286 286 287 287 287 287 287 285 285 285 284 283 282 281 280 279 278 277 276 275 275 275 274 275 275 275 274 273 273 272 270 272 271 270 269 269 269 269 268 268 268 268
291 290 290 289 287 286 286 286 286 286 284 282 282 281 280 280 278 276 276 276 275 274 274 274 274 274 273 273 272 271 271 270 270 269 269 268 267 267 267 267 266 266 266 267
291 289 289 288 288 287 286 286 285 283 281 281 280 280 279 278 277 276 276 275 274 273 273 274 273 272 271 271 270 269 269 267 267 267 266 265 265 265 265 265 264 265 265 264
288 288 288 286 287 286 283 283 282 281 281 280 279 278 277 276 275 274 275 274 275 275 274 273 272 271 270 269 268 268 267 266 266 265 264 264 263 262 263 262 262 263 263 263
285 285 284 283 282 282 282 282 281 279 279 280 278 277 276 275 274 274 273 273 274 274 273 272 271 270 270 269 268 267 266 265 264 264 263 262 261 261 261 261 261 261 261 262
284 283 282 281 281 281 281 281 279 278 277 277 276 276 274 274 273 274 274 274 274 273 273 272 271 267 268 267 268 266 266 264 264 263 263 261 261 260 259 259 259 260 260 260
282 282 281 280 279 279 279 278 278 277 276 276 275 275 275 275 274 273 272 273 273 271 272 271 267 264 263 267 266 265 264 263 262 262 261 260 260 259 258 258 258 258 258 259
281 280 280 279 279 278 276 277 277 276 275 275 275 275 275 273 273 274 274 271 269 270 270 268 266 264 262 265 264 264 263 263 262 261 261 255 259 258 258 257 256 257 257 257
281 281 280 279 278 277 276 276 276 276 276 275 275 275 274 274 274 272 271 270 268 269 268 264 263 261 265 264 263 263 262 262 262 261 260 259 258 257 257 256 255 256 256 256
277 277 277 278 278 277 277 276 274 274 274 273 272 272 272 272 271 270 269 268 268 266 267 265 264 263 263 263 263 262 261 262 261 260 258 258 257 257 256 255 254 255 255 255
275 275 275 274 274 274 275 275 273 272 272 272 271 271 270 269 268 268 266 267 266 265 264 264 263 262 263 262 262 262 261 261 259 259 259 257 256 256 254 254 254 254 254 254
Wind_Speed
5 5 6 7 6 11 10 7 9 8 10 9 6 6 4 5 4 5 7 6 5 3 4 3 4 5 5 6 7 8 9 9 9 9 9 10 11 9 9 8 8 6 6 3
4 4 7 6 5 8 9 4 9 7 7 9 2 2 1 3 6 8 9 9 10 9 8 6 6 7 8 8 8 9 10 10 10 11 13 12 11 12 12 8 10 5 4 2
5 1 3 3 9 11 6 6 8 8 11 6 6 6 6 6 8 8 8 8 10 10 10 9 10 9 11 11 12 13 13 13 13 13 13 11 10 9 8 5 1 1 3 4
3 1 6 2 2 3 8 5 9 5 4 5 4 6 6 3 8 9 8 9 9 9 11 11 12 13 14 14 14 15 15 15 13 12 10 9 8 5 3 2 2 4 7 8
5 5 4 1 5 8 8 15 9 13 7 7 12 8 4 4 6 8 8 8 9 9 11 12 13 13 15 15 16 17 14 12 10 8 8 6 5 3 1 3 4 5 6 8
4 5 9 6 5 5 4 13 9 11 11 18 13 8 6 8 7 9 9 9 10 11 12 13 12 14 17 16 16 14 11 10 8 7 7 6 4 2 2 4 5 5 7 7
4 4 7 6 4 5 6 10 5 12 13 19 11 1 12 13 10 10 11 12 12 13 14 14 14 15 17 14 13 10 10 10 9 8 8 7 5 5 5 5 6 7 8 9
3 2 7 8 6 10 8 3 5 10 12 13 11 14 15 14 14 13 15 14 15 15 14 13 13 14 15 13 10 10 10 10 10 9 7 6 6 6 6 7 7 8 8 9
10 8 2 11 4 6 5 5 6 11 12 15 17 12 16 15 15 15 16 15 14 15 16 13 12 12 13 9 9 10 11 10 9 8 7 7 7 7 6 7 7 8 9 10
3 6 7 7 3 4 4 4 5 9 17 19 17 19 17 15 15 14 14 15 14 16 15 14 12 12 11 9 9 10 10 8 7 7 7 7 5 6 6 7 8 8 9 11
4 5 2 9 11 5 5 5 10 11 11 15 21 18 19 17 16 15 15 13 13 14 14 13 12 12 10 9 8 9 8 7 7 6 7 6 6 6 6 6 8 8 8 10
8 8 6 7 11 11 11 12 14 17 14 14 17 20 19 16 14 15 15 14 13 14 14 12 11 11 10 9 8 8 7 6 6 4 5 5 5 5 6 7 9 10 14 12
5 4 3 4 5 7 9 13 11 13 16 20 16 17 18 17 15 16 15 14 14 14 13 11 11 11 9 9 9 8 7 5 4 5 5 6 6 6 7 6 10 9 13 17
4 9 2 5 4 8 14 15 16 15 14 14 17 16 17 16 16 15 14 14 14 13 12 11 11 10 8 7 7 7 7 8 5 5 5 5 6 6 6 7 8 8 11 14
4 3 1 11 17 12 15 16 18 16 16 16 15 17 17 18 16 15 14 14 14 13 11 10 10 9 6 6 6 7 5 5 4 4 4 5 5 6 6 7 8 9 9 10
7 8 9 9 16 16 15 15 18 15 16 16 17 16 16 16 15 14 14 13 13 10 10 8 8 7 6 6 6 5 5 7 5 4 4 5 5 5 6 7 8 8 9 11
9 7 12 13 14 16 14 12 14 15 15 16 16 17 18 17 15 14 13 12 12 11 9 8 8 7 7 6 6 4 3 4 5 4 4 5 5 5 6 6 7 7 8 9
5 8 5 12 13 14 13 13 14 16 15 16 14 13 16 14 14 14 13 13 11 10 8 8 7 7 7 6 6 4 4 4 4 4 4 5 5 5 6 6 7 8 9 9
7 15 13 14 13 14 14 14 13 15 15 15 15 13 11 13 14 14 12 10 9 9 7 7 9 7 7 7 5 4 4 4 4 4 4 4 4 5 5 6 7 8 9 9
14 11 15 17 14 14 14 13 14 14 12 14 13 12 12 11 11 10 9 8 6 6 9 8 7 6 6 6 5 4 4 4 4 3 3 4 4 5 5 6 7 7 8 8
14 13 14 15 14 13 13 13 14 14 12 10 11 10 10 11 9 9 9 6 7 8 8 8 5 4 4 4 3 3 3 3 3 2 3 3 4 5 6 6 7 7 8 8
10 11 12 13 14 14 12 13 14 13 11 10 9 11 11 11 8 5 4 5 6 7 5 4 4 4 4 3 3 2 1 2 2 2 2 3 4 5 6 6 7 7 8 8
11 13 13 13 14 13 13 12 10 10 10 9 9 9 8 6 5 5 4 5 5 5 4 3 5 4 4 2 2 1 0 0 1 2 2 3 4 5 6 6 7 7 8 8
13 13 14 14 13 14 14 11 11 11 10 9 8 7 8 6 4 4 6 7 6 5 3 4 4 4 2 1 0 1 2 2 2 2 3 3 4 4 5 6 7 7 7 8
13 13 13 12 13 10 12 12 12 11 10 10 9 7 6 3 2 4 5 4 6 3 3 3 3 4 2 1 1 2 3 3 3 3 4 4 4 5 6 6 6 7 8 8
14 10 11 13 10 8 7 7 7 6 6 6 5 3 3 4 5 5 4 4 3 3 2 2 1 1 1 1 2 3 4 4 4 4 4 4 5 6 6 7 7 7 7 8
13 13 10 10 9 8 7 7 6 6 5 4 3 2 3 3 4 4 4 3 2 2 2 1 0 1 1 2 3 4 3 4 4 5 4 4 4 5 6 6 7 7 7 8
Wind_Direction
225 219 186 199 190 176 197 205 193 235 207 249 252 253 282 308 345 66 68 58 69 114 128 134 117 103 101 109 119 125 121 121 121 121 117 118 115 103 101 104 123 118 133 135
195 163 193 222 205 196 212 210 245 244 246 232 239 152 27 90 102 93 84 77 73 73 82 90 89 86 84 87 93 103 101 101 100 94 97 94 96 102 99 91 104 124 164 203
221 158 166 313 206 191 191 192 196 205 224 165 192 180 145 123 110 103 91 79 76 74 73 77 85 98 96 98 97 94 97 99 97 98 98 97 99 99 95 92 90 4 310 257
153 154 221 231 71 181 221 236 223 260 231 205 162 112 99 63 125 113 103 94 83 82 84 86 94 96 101 101 101 101 100 98 97 95 94 94 86 87 102 107 226 239 257 265
154 201 300 216 193 177 182 251 212 225 199 145 135 127 87 70 90 109 106 96 92 92 95 96 98 105 102 100 102 102 97 93 91 91 92 89 91 88 184 244 273 279 281 285
151 175 220 196 214 149 125 279 201 189 174 159 161 174 164 156 130 112 102 101 104 103 103 99 98 103 102 104 103 98 96 94 91 92 94 87 81 34 6 330 313 310 303 298
157 214 281 243 158 148 160 256 201 190 170 165 180 65 127 135 122 112 114 115 112 104 98 98 104 103 98 95 89 92 95 90 77 64 63 52 43 27 0 341 326 317 308 305
109 128 259 153 105 177 208 177 183 175 169 157 124 126 129 130 128 128 123 119 112 105 99 97 101 100 96 91 94 90 83 75 67 61 56 45 35 20 5 356 336 326 319 314
191 202 191 200 200 184 167 159 188 165 154 140 139 145 142 139 139 135 128 119 114 108 100 87 86 94 97 89 94 90 82 73 64 59 47 34 25 14 360 355 347 336 330 324
129 206 219 217 226 229 196 207 173 168 152 152 148 149 143 141 139 133 128 123 120 112 104 96 86 81 82 86 89 87 82 69 55 46 28 28 24 17 4 357 349 343 338 330
280 270 326 251 231 202 186 145 123 131 151 152 142 148 145 143 141 135 128 124 118 112 106 97 91 80 72 72 84 85 78 63 48 38 26 20 24 15 7 6 353 342 345 339
214 208 195 229 194 163 164 171 156 139 129 144 145 143 142 136 135 132 127 124 115 109 107 103 94 84 72 65 65 71 68 55 41 33 25 18 10 359 37 356 343 344 355 347
227 138 83 81 85 133 138 141 136 133 138 136 137 136 134 129 131 125 124 122 120 116 112 106 95 82 67 63 64 64 66 53 47 33 22 13 4 357 348 2 356 350 351 347
152 125 114 194 176 131 123 115 110 110 116 122 127 126 125 124 123 125 124 121 118 114 109 105 94 78 64 66 73 75 74 52 41 29 20 11 6 357 349 350 345 347 348 348
168 352 25 119 114 118 121 125 121 124 125 124 127 129 131 132 129 125 126 122 117 111 108 104 94 84 70 71 73 67 58 47 33 24 27 15 7 357 353 345 346 338 339 348
125 128 133 144 133 142 140 137 130 140 138 138 136 135 129 119 118 119 124 128 128 120 109 102 98 88 73 68 76 68 68 50 32 24 17 14 7 355 353 350 344 342 341 343
125 151 149 158 158 152 153 137 136 142 139 138 132 129 123 118 114 118 114 109 106 109 112 110 103 92 77 68 66 62 50 46 26 26 21 13 359 356 349 347 339 336 333 337
152 122 138 146 145 132 127 128 131 132 126 121 112 116 118 121 128 127 123 120 112 106 104 100 101 93 75 67 63 57 54 33 29 28 13 12 358 353 348 343 334 331 330 330
120 116 127 127 130 125 126 129 125 116 119 121 123 126 122 119 127 128 131 128 128 127 122 115 104 93 86 76 75 67 61 44 38 39 11 5 358 353 346 340 333 328 328 326
100 109 112 108 112 116 110 106 109 107 111 115 114 116 114 115 122 123 130 120 120 120 129 120 113 103 101 89 73 79 66 51 33 27 26 4 0 347 339 331 326 324 323 323
94 102 101 101 103 101 106 114 112 109 108 117 125 125 121 122 118 123 127 127 125 129 119 124 118 116 104 114 106 92 78 55 33 13 6 360 342 341 333 329 324 320 317 321
96 99 99 102 102 97 92 98 102 106 108 102 100 111 119 124 126 95 58 122 131 136 132 125 120 108 115 144 104 115 85 51 22 351 350 343 338 332 328 325 321 317 316 319
87 91 93 93 92 91 86 86 92 107 105 103 111 117 118 126 131 133 132 121 125 129 119 113 122 130 124 111 106 118 156 317 336 325 314 323 325 324 319 316 315 313 315 319
86 85 89 94 99 93 92 87 86 81 83 88 86 92 118 119 87 68 96 106 110 121 113 130 138 117 115 98 74 311 271 268 284 299 287 285 303 311 312 314 310 316 312 312
81 83 83 86 86 88 96 98 95 93 92 90 89 86 98 71 96 129 114 107 122 132 131 132 134 117 85 50 324 316 301 270 269 283 277 284 299 307 310 312 308 312 311 309
65 66 66 64 75 85 91 93 91 91 98 96 80 77 82 85 104 115 113 111 109 107 87 122 132 101 48 327 315 307 304 284 266 271 266 275 293 302 309 312 310 310 309 308
59 58 64 60 48 51 60 73 85 76 65 66 89 107 120 121 120 122 116 111 93 68 46 43 7 284 274 298 303 309 296 290 276 280 275 275 287 300 306 307 305 305 304 304